Dewpoint
57 57 57 57 57 57 57 57 57 57 57 57 58 58 58 58 58 58 58 58 59 59 59 59 59 59 59 59 60 60 60 58 54 51 39 26 40 60 68 68 71 77 75 69 69 67 66 68 69 71 69 67 67 65 67 69 69 63 56 52 50 51 54 57 60 57 58 57 58 62 62 60 56 59 61 60 60 60 60 60 62 63 62 63 65 67 68 69
57 57 57 57 57 57 57 57 57 57 57 57 57 57 58 58 58 58 58 58 59 58 58 58 59 59 59 59 60 60 60 58 54 52 45 52 64 65 70 70 76 76 72 66 66 66 66 67 68 69 65 64 70 65 67 64 68 59 55 53 51 54 58 61 64 61 58 57 61 62 62 61 59 59 60 58 58 58 59 61 62 62 63 64 66 67 68 69
57 57 57 57 57 57 57 57 57 57 57 57 57 57 57 58 58 58 58 58 58 58 58 58 59 59 60 60 60 60 58 54 53 43 44 64 64 69 70 73 76 76 66 65 66 67 66 67 67 64 67 64 66 63 66 64 64 62 56 53 54 58 61 64 64 62 61 61 61 61 61 62 61 59 58 58 58 58 59 60 61 62 62 64 65 67 68 69
57 57 57 57 57 57 57 57 57 57 57 57 57 57 57 57 57 57 58 58 58 58 58 58 59 59 60 60 60 59 57 55 30 37 43 67 66 68 71 74 77 75 66 66 67 67 68 67 65 64 65 61 63 67 62 64 60 60 57 54 55 61 59 62 64 64 64 63 62 62 62 61 60 63 58 58 57 57 58 61 60 62 63 64 65 66 67 68
57 57 57 57 57 57 56 56 56 56 57 57 57 57 57 57 57 57 58 58 58 58 58 58 59 59 60 60 60 57 52 28 26 36 40 71 68 69 72 75 76 71 66 65 67 67 67 65 64 65 60 58 63 62 62 64 63 60 57 58 60 60 59 63 64 65 66 66 63 62 61 61 63 60 57 58 56 56 57 60 61 63 63 64 65 66 67 67
56 57 56 56 56 56 56 56 56 56 56 56 57 56 56 57 57 57 58 58 58 58 58 59 59 59 60 61 58 57 35 24 31 32 73 74 68 70 72 75 75 69 64 65 65 65 65 65 63 62 60 58 61 58 59 63 65 54 56 61 62 62 61 63 63 65 65 64 62 61 62 63 62 57 59 59 57 58 59 60 62 64 64 65 66 66 66 67
56 56 56 56 56 56 56 56 56 56 56 56 56 56 56 57 57 57 57 58 58 58 58 59 59 60 60 60 55 44 28 25 32 33 75 70 70 72 73 75 74 66 62 63 63 63 63 63 61 59 57 58 57 60 61 63 65 57 55 61 62 64 64 65 64 65 64 63 61 64 65 61 60 55 59 58 58 59 60 62 63 64 65 65 65 66 66 66
55 56 56 56 56 56 56 56 56 56 56 56 56 56 56 56 57 57 57 58 58 58 59 59 59 60 60 54 36 28 26 19 22 33 75 71 70 72 72 70 65 63 61 61 60 62 61 61 60 58 56 54 55 60 61 60 61 59 59 61 62 64 66 65 64 65 65 64 64 65 61 59 62 61 63 60 59 60 61 63 64 65 65 65 65 65 66 66
55 55 55 55 55 56 56 56 56 56 56 56 56 56 56 56 57 57 57 58 58 59 59 59 60 60 59 53 28 19 13 21 35 63 70 65 69 68 65 64 61 61 60 61 60 59 60 59 60 58 55 55 57 60 61 58 56 59 59 62 64 63 66 68 66 65 65 64 66 62 60 62 63 65 61 62 58 61 62 63 64 64 65 65 65 65 66 66
55 55 55 55 55 55 55 56 56 56 56 56 56 56 56 56 56 57 57 58 58 59 59 59 60 60 57 39 16 13 14 16 56 68 66 64 69 65 58 62 58 57 57 59 58 57 59 58 59 59 56 54 58 59 58 56 54 60 62 64 62 64 65 67 64 64 65 64 65 60 59 60 63 57 52 58 60 62 62 63 63 64 64 64 65 65 65 66
55 55 55 55 55 55 55 55 56 55 56 56 56 55 55 56 56 57 57 58 58 59 60 60 59 59 49 48 18 13 16 45 54 65 61 65 64 60 56 61 56 55 56 58 58 57 58 58 59 58 56 53 57 59 58 57 58 60 63 63 63 66 66 66 64 62 63 62 64 60 59 60 61 57 55 58 61 61 61 62 63 63 63 64 64 65 65 65
55 55 55 55 55 55 55 55 55 55 55 55 55 55 55 56 56 56 57 58 59 60 60 59 60 56 54 34 25 16 23 49 52 61 59 63 58 56 57 60 56 54 56 55 56 56 55 56 56 54 50 56 54 58 58 58 61 63 61 57 60 63 63 65 61 62 63 61 65 62 57 55 56 55 57 59 60 61 61 61 62 62 63 63 63 64 64 64
55 55 55 55 55 55 55 55 55 55 55 55 55 55 56 56 56 57 57 58 59 59 60 60 60 56 40 21 21 27 27 37 45 56 59 54 41 44 54 59 56 54 54 51 50 51 52 54 55 54 53 54 53 51 57 60 63 61 61 59 58 60 59 62 64 65 62 62 65 60 49 51 52 57 60 60 59 60 60 61 61 61 62 62 62 63 63 64
54 54 54 55 55 55 55 55 55 55 55 55 55 55 55 56 56 57 58 58 59 60 60 60 56 56 25 15 15 23 25 26 30 28 47 55 39 40 50 57 57 52 50 48 49 53 53 54 54 54 48 51 51 56 58 59 59 57 59 59 54 53 54 61 63 64 61 65 64 57 49 49 52 55 60 61 58 59 59 60 60 60 61 61 61 62 62 63
54 54 54 55 55 55 55 55 55 55 55 55 55 55 55 56 56 57 58 58 59 60 60 61 54 39 24 20 29 43 54 31 30 28 35 51 40 37 41 51 53 52 50 47 51 57 53 53 52 50 50 50 53 55 54 54 54 57 51 49 50 52 52 60 65 62 59 63 63 55 49 50 52 55 58 61 59 59 58 59 60 60 60 60 61 61 61 62
54 54 54 55 55 55 55 55 55 55 55 54 54 54 55 55 56 57 58 58 59 61 58 56 53 43 26 18 21 53 41 29 27 30 29 45 39 36 38 40 43 48 49 50 48 48 50 52 49 45 44 51 50 51 50 53 52 50 50 47 47 51 53 54 63 63 64 63 63 55 50 53 52 57 59 62 59 58 57 57 58 59 59 59 60 60 60 61
54 54 55 55 55 55 55 54 55 55 54 54 54 54 55 56 58 59 60 60 60 57 57 54 54 55 20 24 31 32 32 40 38 31 30 31 37 37 40 39 39 41 47 50 51 49 49 50 46 38 33 47 49 49 47 44 45 47 49 48 50 48 50 49 58 64 64 62 59 61 55 55 53 57 61 62 59 57 56 57 57 57 58 58 59 59 59 60
54 55 55 55 55 55 54 54 54 54 54 54 53 54 54 58 58 60 60 59 60 56 54 57 49 27 15 25 25 27 37 41 38 36 30 30 33 39 42 41 45 45 47 48 47 47 47 45 35 33 28 43 48 46 43 40 44 46 45 46 47 48 49 48 51 57 63 62 59 59 57 56 57 58 60 61 61 57 56 56 56 56 56 56 57 57 58 58
54 55 55 55 54 54 54 54 54 54 54 54 54 55 56 58 58 56 51 55 39 32 27 35 23 16 12 21 25 30 38 39 36 33 32 29 36 40 41 42 45 46 44 44 45 46 41 38 34 30 27 39 47 46 41 41 45 46 47 47 48 44 44 48 52 58 62 60 58 59 57 57 58 58 59 61 60 56 56 56 56 56 55 55 55 55 56 57
55 55 55 54 54 54 54 54 54 53 53 52 50 52 51 44 43 46 50 51 46 32 31 31 31 22 25 26 24 27 39 33 30 32 34 45 34 36 36 38 37 40 38 40 38 37 33 37 36 35 31 27 42 46 43 44 45 45 47 46 46 46 46 50 54 59 62 58 58 58 58 57 58 58 58 60 60 58 56 55 55 55 55 54 54 55 55 55
54 55 54 54 53 54 54 54 53 53 53 51 50 45 35 35 31 30 43 48 44 42 39 37 35 29 23 30 32 32 31 32 33 30 31 39 34 30 30 34 34 35 36 38 35 35 34 35 34 35 27 25 28 41 45 44 43 42 44 43 42 46 42 47 49 58 62 57 55 58 59 58 58 59 59 60 59 57 56 55 55 55 55 54 54 54 54 55
55 55 54 53 53 53 53 53 53 53 52 50 50 44 45 38 36 36 39 36 38 42 42 39 37 33 33 30 33 34 34 32 31 32 34 31 31 25 29 32 33 32 34 33 33 33 30 31 34 33 28 26 28 33 38 42 41 38 40 40 38 37 44 46 52 59 61 57 53 55 57 57 58 59 59 59 59 58 57 56 56 56 55 54 53 54 54 55
55 54 54 53 53 53 53 53 52 51 50 50 49 47 45 45 47 49 44 38 38 40 40 41 40 38 36 38 37 35 32 31 29 32 30 31 30 27 31 30 32 32 32 32 32 32 31 30 29 30 28 26 30 24 23 26 30 32 30 31 28 38 33 31 43 58 59 55 51 54 55 55 56 56 57 58 60 59 58 57 56 57 56 55 54 53 53 54
54 54 54 54 54 53 52 52 51 50 50 50 48 47 48 48 48 47 41 37 34 32 39 40 40 39 38 35 36 34 32 32 32 31 35 30 27 30 30 30 30 31 30 31 31 30 31 31 29 28 26 26 25 24 22 21 22 22 24 27 26 25 35 32 38 56 57 57 54 52 49 46 49 53 54 56 60 60 59 59 58 58 58 57 56 54 54 54
54 54 54 54 53 53 52 51 50 49 50 50 48 48 48 49 51 48 39 31 29 30 35 36 40 38 37 39 37 33 33 36 33 34 33 29 29 29 29 32 31 29 30 30 31 30 30 31 29 25 25 26 25 24 23 21 23 22 23 22 22 22 21 48 54 54 51 51 55 49 38 39 44 49 52 54 58 59 59 57 57 57 57 58 57 56 55 55
54 54 54 53 53 51 51 50 50 47 47 45 47 50 50 48 48 48 34 28 24 26 30 27 39 33 38 36 36 35 34 31 33 33 30 29 34 29 33 30 31 29 29 30 29 30 30 31 30 29 28 26 24 23 24 22 22 24 22 22 22 21 31 54 54 47 45 41 47 50 38 36 41 46 50 53 56 56 58 58 57 57 57 57 57 57 56 55
53 53 53 53 52 52 45 46 48 48 44 44 47 48 48 48 52 41 29 27 23 31 27 29 32 29 36 35 35 30 23 24 34 33 31 39 29 34 28 28 30 31 31 32 32 28 29 29 29 29 29 28 26 25 24 22 22 22 26 22 23 23 38 49 51 41 44 51 48 49 42 37 38 40 45 53 55 55 56 57 58 57 57 57 57 57 57 56
53 53 53 52 52 51 45 48 47 46 43 45 49 48 48 49 47 35 30 20 20 31 25 27 28 33 34 36 32 27 24 26 26 28 28 31 30 29 28 26 27 27 29 30 27 32 27 27 27 27 28 25 25 26 27 23 22 22 24 24 21 23 33 47 49 46 45 40 37 44 46 41 41 42 49 55 53 54 55 56 57 57 57 57 57 57 57 56
53 53 52 52 51 51 51 49 47 44 46 49 49 48 48 49 36 32 26 17 24 24 28 24 27 31 34 36 33 28 27 25 23 25 29 30 30 27 25 25 28 28 28 29 27 28 28 26 26 26 25 24 24 24 23 23 23 22 25 30 36 45 49 50 47 40 38 38 36 43 46 38 38 40 48 53 52 52 53 55 57 57 57 57 57 56 57 56
52 52 51 51 49 50 50 50 48 48 50 49 48 48 48 36 30 27 21 15 26 21 26 26 24 23 34 33 32 31 29 25 24 27 28 27 28 29 29 29 28 29 27 28 27 28 29 43 37 25 24 24 25 24 24 22 23 20 21 32 36 38 40 42 40 40 36 33 35 40 46 39 31 37 47 49 51 52 51 54 56 57 58 57 57 56 56 56
51 51 51 51 46 49 49 46 47 49 49 49 48 43 34 31 33 25 19 18 27 24 26 26 24 32 32 30 29 30 28 26 25 23 23 27 27 27 27 24 26 25 24 24 24 25 25 25 26 26 33 29 25 25 25 24 23 23 23 22 27 31 32 33 36 39 33 31 34 37 45 38 32 34 37 50 52 54 52 52 54 56 57 57 57 57 56 56
50 50 50 49 49 50 43 43 47 49 48 49 47 33 29 24 24 21 20 27 23 24 25 27 26 28 29 31 27 28 26 23 21 23 21 23 25 24 23 22 25 24 24 24 24 24 24 25 25 24 49 25 25 23 22 21 19 20 24 22 17 22 29 24 30 32 31 29 33 39 43 41 38 35 35 39 44 49 53 53 53 54 56 57 57 57 57 56
49 49 50 50 50 48 49 49 51 50 51 52 40 34 29 25 20 26 24 24 22 26 27 31 28 29 30 28 27 27 26 22 22 23 22 24 24 25 26 23 25 23 21 28 23 22 22 23 23 22 23 32 23 20 20 20 18 18 18 21 18 17 16 17 24 30 26 26 30 38 42 36 39 35 38 37 38 43 50 54 54 54 55 56 57 57 57 57
49 49 48 49 49 49 51 53 50 50 49 51 34 29 25 20 23 54 34 30 27 29 30 30 29 29 28 24 24 25 24 24 20 20 22 23 24 23 24 24 25 23 23 27 22 22 21 18 19 21 20 25 23 21 21 21 16 16 19 17 20 21 18 16 22 19 21 26 29 36 33 31 30 34 43 46 48 49 48 52 55 56 56 57 58 58 57 57
48 49 50 50 50 50 50 50 50 50 46 37 32 31 26 25 29 26 28 29 31 30 28 30 29 23 21 20 21 24 25 23 19 21 22 20 20 22 22 22 25 24 24 19 25 26 21 20 22 23 24 24 22 23 23 21 20 19 20 18 18 18 27 16 22 25 26 24 30 32 30 34 33 40 49 52 53 54 57 55 57 57 57 57 57 58 57 56
49 51 51 50 50 53 50 51 50 49 38 33 32 27 24 28 24 29 28 31 32 29 29 30 28 22 22 22 23 23 23 23 19 20 21 20 20 20 22 22 23 23 20 18 24 20 25 19 21 23 25 21 21 24 24 20 21 22 17 17 17 21 22 33 39 38 29 20 23 35 34 35 42 38 45 51 52 52 54 55 55 55 57 57 57 57 57 57
50 52 51 54 53 50 51 50 50 47 38 32 29 27 31 35 30 31 48 33 30 31 30 27 28 22 22 21 22 22 22 17 17 17 18 22 20 22 22 22 24 23 21 20 23 23 19 19 22 22 19 20 21 22 21 21 21 15 16 16 23 24 22 20 18 21 24 17 23 33 32 35 34 30 44 45 48 49 53 54 55 56 56 56 56 57 58 57
50 54 54 50 50 50 51 51 49 42 40 36 32 46 41 33 35 32 34 33 32 32 30 30 28 27 26 22 25 23 22 17 17 18 16 20 19 24 22 22 23 23 23 22 20 23 21 18 19 21 19 21 22 20 19 20 19 16 15 20 15 20 17 23 20 15 15 16 21 27 37 40 39 35 42 41 45 45 51 53 54 55 55 55 56 57 58 58
51 48 45 47 51 50 50 52 44 43 36 34 35 34 40 37 36 35 35 34 33 32 30 29 28 29 28 31 28 29 24 23 19 17 16 18 19 22 27 31 27 34 26 24 20 26 24 18 21 24 20 20 19 18 19 17 16 16 17 14 25 20 23 18 18 23 18 16 20 18 33 29 40 40 42 39 44 48 51 52 53 54 55 55 56 56 57 58
48 44 43 47 50 52 53 52 39 38 36 33 33 36 34 34 33 34 34 34 32 30 30 31 32 32 33 34 31 36 33 30 18 16 17 17 23 36 38 39 38 38 29 23 22 25 22 25 21 23 22 19 16 20 17 17 12 15 13 14 19 23 25 18 22 18 18 23 22 24 21 28 34 43 44 43 44 48 51 52 53 54 56 56 56 56 57 58
49 42 42 47 52 52 49 42 38 37 35 36 37 35 35 34 35 36 37 38 35 35 32 34 35 35 35 36 36 38 39 34 35 26 28 20 31 24 36 39 39 38 33 24 23 23 24 24 20 21 19 17 15 18 17 17 13 12 12 11 11 13 16 15 17 20 22 18 16 22 18 29 35 44 48 46 46 50 52 52 53 54 55 56 57 57 58 58
43 41 42 47 47 48 41 38 40 41 36 36 36 38 38 45 40 37 36 38 36 37 38 38 39 37 38 36 38 39 37 35 38 32 35 35 35 38 38 39 39 39 31 23 22 22 22 25 23 19 19 20 18 16 21 17 16 13 13 13 12 15 15 17 13 17 27 33 32 30 26 27 38 50 51 49 50 51 52 53 54 55 55 56 57 58 59 59
44 41 46 49 46 44 41 39 44 43 39 38 40 39 39 36 38 36 36 36 38 39 38 38 39 42 40 40 41 39 38 37 38 37 36 38 38 39 38 40 39 42 31 33 26 25 50 23 23 22 26 29 26 24 18 20 13 11 10 13 11 12 12 12 18 24 23 34 30 30 28 27 40 52 54 53 51 52 53 53 54 55 57 58 60 61 61 62
46 46 44 48 45 42 38 37 37 38 43 41 41 35 35 36 34 35 35 35 39 41 38 39 40 42 41 45 43 39 40 37 39 37 38 39 37 40 39 39 40 42 43 44 44 35 25 29 23 22 24 27 24 23 22 25 13 15 13 14 12 13 17 20 26 31 29 32 33 28 25 29 42 50 54 52 52 53 52 55 56 55 58 60 61 62 62 63
45 46 49 46 44 41 38 38 39 39 41 40 39 32 32 32 34 36 37 35 36 39 40 38 39 40 40 47 50 45 42 39 39 40 39 38 38 40 40 40 40 41 45 52 57 54 32 30 26 22 22 20 20 17 22 21 14 13 20 14 16 11 15 17 17 26 16 33 33 30 30 34 37 48 52 53 51 52 54 55 58 57 58 61 62 62 63 63
39 34 37 36 39 39 41 44 42 41 41 41 37 34 33 32 33 33 36 36 37 36 39 41 40 40 39 41 44 46 47 46 41 39 40 39 39 39 40 40 40 42 51 52 52 45 32 35 30 27 24 24 24 27 31 36 16 11 11 10 9 11 15 24 25 23 17 31 33 36 34 35 38 41 48 50 52 51 53 56 57 59 61 61 62 62 63 63
42 38 40 34 39 39 40 40 41 42 40 41 35 34 34 35 35 34 35 36 37 38 38 40 40 40 40 40 39 39 45 47 48 43 42 40 40 40 41 42 39 49 51 45 48 40 37 33 35 34 29 24 23 32 28 33 15 14 11 10 9 12 17 17 15 16 29 32 28 39 41 36 35 40 46 50 52 52 54 55 57 58 60 62 63 63 66 63
33 38 41 41 35 35 39 39 41 42 40 41 37 37 35 35 35 35 35 36 37 39 37 37 39 40 39 39 41 37 39 43 48 44 44 43 41 41 39 40 40 46 45 38 42 37 35 34 35 29 25 25 23 22 25 25 17 19 15 14 10 13 16 14 14 18 26 20 17 32 41 37 36 39 42 48 51 51 52 55 57 59 61 62 62 63 62 63
42 42 43 45 39 41 41 42 44 44 36 44 42 38 36 35 35 36 35 37 38 38 39 38 36 39 39 39 41 39 40 39 38 43 44 46 42 42 39 40 41 39 39 38 39 42 37 37 39 34 32 29 28 26 26 23 20 19 20 21 15 14 14 12 14 29 23 29 28 34 41 36 34 38 44 48 53 54 56 59 60 60 61 62 62 62 62 62
40 39 39 44 45 43 45 42 40 38 36 40 39 37 37 36 35 36 37 38 38 39 39 37 37 37 39 40 41 39 40 40 40 38 44 43 44 48 45 42 39 40 40 38 39 40 37 36 44 33 31 26 25 28 23 23 24 28 29 27 20 14 15 18 21 34 38 33 38 39 41 40 41 49 54 56 57 58 59 58 58 60 62 62 62 62 62 62
45 45 44 40 39 43 46 40 40 39 36 37 38 38 40 36 35 37 37 39 37 38 38 37 37 37 42 41 42 42 42 41 41 39 39 40 38 45 47 44 41 41 41 40 40 39 40 39 38 35 30 26 26 28 28 23 29 32 32 32 29 23 23 22 25 33 28 30 42 40 39 37 41 53 55 56 57 56 56 57 58 60 61 62 62 62 62 62
45 46 46 42 38 43 40 41 39 37 35 37 40 39 38 36 36 37 37 38 38 38 38 38 37 38 39 40 40 41 40 40 40 40 40 40 39 39 43 50 49 44 44 41 44 39 41 40 37 34 32 32 32 30 30 28 26 29 32 33 35 32 32 29 33 39 36 36 36 34 31 41 44 53 52 54 56 56 56 57 58 60 61 62 62 62 62 63